Location: Gull Harbor
(47.1000°N, 122.9000°W)
Time: 12:23:15
(UTC-07:00)

BlueWalker 3 - Pass Details

Date: 06 February 2023
Orbit: 497 x 514 km, 53.2° (Epoch: 01 April)

Event Time Altitude Azimuth Distance (km) Brightness Sun altitude
Rises 20:36:47 0° 297° (WNW) 2,615 6.6 -33.3°
Reaches altitude 10° 20:39:02 10° 292° (WNW) 1,731 5.5 -33.7°
Enters shadow 20:39:45 15° 288° (WNW) 1,460 5.0 -33.8°
